星链-37377(STARLINK-37377)

导读

STARLINK-37377(NORAD编号100483,国际标识2025-101Z)是SpaceX星链低轨宽带星座的通信卫星,由SpaceX制造,设计寿命约5年,于2025年5月14日由猎鹰9号火箭发射,执行任务的B1090-4助推器发射后约8分钟成功降落在大西洋的无人回收船上。该卫星运行在约550公里高度的近地轨道,可提供超1Gbps的高速互联网传输服务,助力电信基础设施薄弱区域接入高速网络,同时属于SpaceX规划的4.2万颗规模星链星座组成部分,当前处于正常运行状态。

基本信息
目录编号:
100483
目录名称:
STARLINK-37377
国际标识:
2026-196L
轨道中心:
EARTH
卫星名称:
星链-37377
卫星全名:
星链-37377(STARLINK-37377)
卫星状态:
在轨 (已飞行11 天)
发射日期:
2026-08-25 UTC
国别 :
美国 (US)
星等 :
--
轨道信息
数据来源 国际轨道数据
星历时间: 2026-09-05T00:05:01+0800
14小时前
查看轨道信息
半长轴: 6677.151km
偏心率: 0.0001742
轨道倾角: 53.159°
近地点辐角 58.275°
升交点赤经 320.923°
平近点角 301.845°
近地点: 297.85km
远地点: 300.178km
周期: 90.500分钟
每日圈数: 15.911678
详细信息
固有亮度:
5
最大亮度:
2.5
卫星平台:
Starlink V1.0
覆盖范围:
全球
运营商:
太空探索技术公司
运营商所在国:
美国
制造商(研发单位):
太空探索技术公司
制造商所在国:
美国
使用方式:
暂无
卫星简介
Starlink 计划是 SpaceX 推出的全球卫星互联网项目,通过发射低轨道卫星,为全球尤其是偏远地区提供高速、低延迟的互联网服务。自 2019 年起,Starlink 已部署数千颗卫星,旨在缩小全球数字鸿沟,推动互联网普及。该项目还为军事、航空等行业提供通信支持,带来广泛经济效益。
2D轨道图
3D轨道图
轨道高度分析图
轨道倾角分析图
轨道综合分析图
查看轨道综合分析图